SL-8 DEB, 2334

Orbit data source: Space-Track

SL-8 DEB, 2334 is space debris in LEO originally from a launch on Mon, 15 Mar 1965 UTC launched from the Tyuratam Missile And Space Complex (TTMTR). Debris objects in space refer to the collection of defunct objects orbiting the Earth. Examples of debris include non-operational satellites, rocket bodies, and fragments generated from explosions, collisions, or faulty payload assembly.

Loading next visibility...
Identifier
2334, 1965-020EH
Orbit
LEO
Last TLE update
11 hours ago
Origin
Manufacturer
Unknown
Mission
Spacecraft
Bus & Motor
Unknown
Mass
Unknown
Launch date (UTC)
1965-03-15 (60 years ago)
Launch vehicle
Unknown
Launch site
Tyuratam Missile And Space Complex (TTMTR)
Object type
Payload
Rocket body
Debris
Shape & HBR
Unknown
Radar Cross Section
Small (<0.1 m²)

Expand to show TLE details & history

TLE from 11 hours ago
0 SL-8 DEB
1 02334U 65020EH  25182.71201727  .00000729  00000-0  99994-3 0  9991
2 02334  55.6748 320.5804 0585240 176.0011 184.5908 13.11847488804946
Epoch: 2025-07-01T17:05Z
TLE epoch observation values (Epoch: 2025-07-01T17:05:18.292Z)
Latitude
0.00003°
Longitude
144.25066°
Altitude
1,660.251 km
Speed
6.835 km/s
True Right ascension
21h 22m 19s
True Declination
0° 00' 00"
Sunlit
Object was in full shadow at epoch
Visualization orbit readout
Latitude
-55.55819°
Longitude
60.74657°
Altitude
1,269.947 km
Speed
7.204 km/s
Apparent Right ascension
00h 18m 32s
Apparent Declination
-85° 18' 20"
Sunlit
Object is in full shadow
Visualization observer readout
Local Sidereal Time
15:16:40
Azimuth
175.486° S
Elevation
-43.177°
Doppler factor
1
Orbital elements
Apogee altitude
1,660.324 km
Perigee altitude
771.458 km
Semi-major axis
7,594.028 km
Eccentricity
0.05852
Inclination
55.6748°
RAAN
320.5804°
Arg. of periapsis
176.0011°
True anomaly
Unknown
Mean anomaly
184.5908°
Eccentric anomaly
Unknown
Mean motion
3.27971 °/min
Orbital period
109.77 mins
BSTAR
0.00099994
Loading maneuver chart data...
Loading SW <> Apogee altitude chart data...
Loading historical data...
Loading historical data...
Loading historical data...
Loading historical data...
Loading historical data...
Loading historical data...
Loading historical data...

SL-8 DEB Visibility forecast

Observer location: undefined°, undefined°

Span
Click to sort rows by Start time (UTC) header in descending order
Start Az.
Max El. time (UTC)
Max El. Az.
Max El.
End time (UTC)
End Az.
13 mins2025-07-02 09:38:24.076Z163.586° S2025-07-02 09:45:24.076Z115.765° SE21.802°2025-07-02 09:51:24.076Z72.009° E
16 mins2025-07-02 11:31:24.076Z218.695° SW2025-07-02 11:39:24.076Z111.651° ESE44.749°2025-07-02 11:47:24.076Z47.481° ENE
14 mins2025-07-02 13:27:24.076Z269.615° W2025-07-02 13:34:24.076Z328.884° NNW31.793°2025-07-02 13:41:24.076Z38.234° NE
10 mins2025-07-02 15:26:24.076Z313.33° NW2025-07-02 15:31:24.076Z358.376° N21.543°2025-07-02 15:36:24.076Z46.848° ENE
9 mins2025-07-02 17:23:24.076Z330.247° NNW2025-07-02 17:27:24.076Z15.14° NNE28.125°2025-07-02 17:32:24.076Z81.903° E
10 mins2025-07-02 19:17:24.076Z310.041° NW2025-07-02 19:22:24.076Z260.523° W43.084°2025-07-02 19:27:24.076Z146.124° SSE
|